| time (UTC) | temp C | wind direction | speed KPH | gust KPH | rain 1hr cm | rain 24hr cm | rain mn cm | humidity % | barometer mb |
| 20260903001207 | 21 | 155 | 4.8 | 4.8 | 0.00 | 1.07 | 1.07 | 95 | 1017.0 |
| 20260903000703 | 21 | 114 | 4.8 | 4.8 | 0.00 | 1.07 | 1.07 | 95 | 1016.9 |
| 20260903000204 | 21 | 126 | 3.2 | 3.2 | 0.00 | 1.07 | 1.07 | 95 | 1017.0 |
| 20260902235700 | 21 | 166 | 3.2 | 3.2 | 0.00 | 1.07 | 1.07 | 95 | 1017.2 |
| 20260902235156 | 21 | 203 | 8.0 | 9.7 | 0.00 | 1.07 | 1.07 | 95 | 1017.0 |
| 20260902234650 | 21 | 120 | 8.0 | 11.3 | 0.00 | 1.07 | 1.07 | 95 | 1016.5 |
| 20260902234149 | 21 | 137 | 4.8 | 8.0 | 0.00 | 1.07 | 1.07 | 95 | 1016.5 |
| 20260902233644 | 21 | 125 | 9.7 | 11.3 | 0.00 | 1.07 | 1.07 | 95 | 1016.8 |
| 20260902233143 | 21 | 139 | 8.0 | 11.3 | 0.00 | 1.07 | 1.07 | 95 | 1016.9 |
| 20260902232642 | 21 | 167 | 8.0 | 11.3 | 0.00 | 1.07 | 1.07 | 95 | 1017.0 |
| 20260902232141 | 21 | 149 | 3.2 | 4.8 | 0.00 | 1.07 | 1.07 | 95 | 1017.1 |
| 20260902231636 | 21 | 131 | 3.2 | 4.8 | 0.00 | 1.07 | 1.07 | 95 | 1017.3 |
| 20260902231131 | 21 | 151 | 4.8 | 4.8 | 0.00 | 1.07 | 1.07 | 95 | 1017.1 |
| 20260902230626 | 21 | 130 | 1.6 | 3.2 | 0.00 | 1.07 | 1.07 | 95 | 1017.4 |
| 20260902230125 | 21 | 140 | 4.8 | 8.0 | 0.00 | 1.07 | 1.07 | 95 | 1017.0 |
| 20260902225620 | 21 | 162 | 4.8 | 8.0 | 0.00 | 1.07 | 1.07 | 95 | 1016.7 |
| 20260902225119 | 21 | 118 | 8.0 | 11.3 | 0.00 | 1.07 | 1.07 | 95 | 1016.7 |
| 20260902224618 | 21 | 114 | 4.8 | 4.8 | 0.00 | 1.07 | 1.07 | 95 | 1016.8 |
| 20260902224114 | 21 | 115 | 6.4 | 12.9 | 0.00 | 1.07 | 1.07 | 95 | 1016.9 |
| 20260902223611 | 21 | 109 | 17.7 | 20.9 | 0.00 | 1.07 | 1.07 | 95 | 1016.7 |
| 20260902223109 | 21 | 169 | 8.0 | 12.9 | 0.00 | 1.07 | 1.07 | 95 | 1016.9 |
| 20260902222608 | 21 | 128 | 9.7 | 14.5 | 0.00 | 1.07 | 1.07 | 95 | 1016.8 |
| 20260902222107 | 21 | 121 | 6.4 | 9.7 | 0.00 | 1.07 | 1.07 | 95 | 1016.7 |
| 20260902221601 | 21 | 121 | 8.0 | 12.9 | 0.00 | 1.07 | 1.07 | 95 | 1017.0 |
| 20260902221056 | 21 | 131 | 8.0 | 11.3 | 0.00 | 1.07 | 1.07 | 95 | 1017.0 |
| 20260902220552 | 21 | 64 | 9.7 | 12.9 | 0.00 | 1.07 | 1.07 | 95 | 1017.4 |
| 20260902220046 | 21 | 128 | 8.0 | 9.7 | 0.00 | 1.07 | 1.07 | 95 | 1017.2 |
| 20260902215543 | 21 | 108 | 4.8 | 9.7 | 0.00 | 1.07 | 1.07 | 95 | 1017.5 |
| 20260902215037 | 21 | 126 | 6.4 | 9.7 | 0.00 | 1.07 | 1.07 | 95 | 1017.6 |
| 20260902214532 | 21 | 115 | 6.4 | 9.7 | 0.00 | 1.07 | 1.07 | 95 | 1017.4 |
| 20260902214031 | 21 | 116 | 9.7 | 11.3 | 0.00 | 1.07 | 1.07 | 95 | 1017.5 |
| 20260902213527 | 21 | 136 | 6.4 | 8.0 | 0.00 | 1.07 | 1.07 | 95 | 1017.6 |
| 20260902213026 | 21 | 114 | 6.4 | 9.7 | 0.00 | 1.07 | 1.07 | 95 | 1017.7 |
| 20260902212522 | 21 | 115 | 6.4 | 9.7 | 0.00 | 1.07 | 1.07 | 95 | 1017.6 |
| 20260902212018 | 21 | 109 | 6.4 | 8.0 | 0.00 | 1.07 | 1.07 | 95 | 1017.4 |
| 20260902211514 | 21 | 129 | 4.8 | 4.8 | 0.00 | 1.07 | 1.07 | 95 | 1017.6 |
| 20260902211008 | 21 | 181 | 3.2 | 3.2 | 0.00 | 1.07 | 1.07 | 95 | 1017.7 |
| 20260902210503 | 21 | 100 | 6.4 | 8.0 | 0.00 | 1.07 | 1.07 | 95 | 1017.7 |
| 20260902210001 | 21 | 110 | 4.8 | 4.8 | 0.00 | 1.07 | 1.07 | 95 | 1017.6 |
| 20260902205456 | 21 | 167 | 1.6 | 1.6 | 0.00 | 1.07 | 1.07 | 95 | 1017.6 |
| 20260902204952 | 21 | 121 | 4.8 | 4.8 | 0.00 | 1.07 | 1.07 | 95 | 1017.5 |
| 20260902204451 | 21 | 115 | 3.2 | 4.8 | 0.00 | 1.07 | 1.07 | 95 | 1017.7 |
| 20260902203947 | 21 | 118 | 4.8 | 4.8 | 0.00 | 1.07 | 1.07 | 95 | 1017.5 |
| 20260902203443 | 21 | 119 | 9.7 | 11.3 | 0.00 | 1.07 | 1.07 | 95 | 1017.4 |
| 20260902202941 | 21 | 142 | 9.7 | 12.9 | 0.00 | 1.07 | 1.07 | 95 | 1017.5 |
| 20260902202437 | 21 | 144 | 4.8 | 4.8 | 0.00 | 1.07 | 1.07 | 95 | 1017.3 |
| 20260902201934 | 21 | 121 | 11.3 | 12.9 | 0.00 | 1.07 | 1.07 | 95 | 1017.4 |
| 20260902201429 | 21 | 122 | 11.3 | 12.9 | 0.00 | 1.07 | 1.07 | 95 | 1017.8 |
| 20260902200929 | 21 | 134 | 4.8 | 8.0 | 0.00 | 1.07 | 1.07 | 95 | 1017.7 |
| 20260902200424 | 21 | 113 | 3.2 | 4.8 | 0.00 | 1.07 | 1.07 | 95 | 1017.8 |
| 20260902195919 | 21 | 124 | 4.8 | 8.0 | 0.00 | 1.07 | 1.07 | 95 | 1017.8 |
| 20260902195414 | 21 | 169 | 11.3 | 12.9 | 0.00 | 1.07 | 1.07 | 95 | 1017.8 |
| 20260902194909 | 21 | 101 | 8.0 | 11.3 | 0.00 | 1.07 | 1.07 | 95 | 1017.7 |
| 20260902194408 | 21 | 131 | 4.8 | 4.8 | 0.00 | 1.07 | 1.07 | 95 | 1018.1 |
| 20260902193903 | 21 | 132 | 4.8 | 4.8 | 0.00 | 1.07 | 1.07 | 95 | 1018.3 |
| 20260902193359 | 21 | 101 | 4.8 | 8.0 | 0.00 | 1.07 | 1.07 | 95 | 1018.2 |
| 20260902192858 | 21 | 127 | 6.4 | 9.7 | 0.00 | 1.07 | 1.07 | 95 | 1018.4 |
| 20260902192357 | 21 | 124 | 4.8 | 4.8 | 0.00 | 1.07 | 1.07 | 95 | 1018.2 |
| 20260902191851 | 21 | 167 | 6.4 | 8.0 | 0.00 | 1.07 | 1.07 | 95 | 1018.2 |
| 20260902191346 | 21 | 114 | 6.4 | 11.3 | 0.00 | 1.07 | 1.07 | 95 | 1018.4 |
| 20260902190836 | 21 | 130 | 4.8 | 4.8 | 0.00 | 1.07 | 1.07 | 95 | 1018.5 |
| 20260902190335 | 21 | 130 | 6.4 | 8.0 | 0.00 | 1.07 | 1.07 | 95 | 1018.4 |
| 20260902185832 | 21 | 111 | 8.0 | 9.7 | 0.00 | 1.07 | 1.07 | 95 | 1018.5 |
| 20260902185327 | 21 | 151 | 3.2 | 3.2 | 0.00 | 1.07 | 1.07 | 95 | 1018.3 |
| 20260902184823 | 21 | 120 | 9.7 | 12.9 | 0.00 | 1.07 | 1.07 | 95 | 1018.4 |
| 20260902184318 | 21 | 167 | 4.8 | 8.0 | 0.00 | 1.07 | 1.07 | 95 | 1018.6 |
| 20260902183813 | 21 | 92 | 9.7 | 12.9 | 0.00 | 1.07 | 1.07 | 95 | 1018.4 |
| 20260902183309 | 21 | 123 | 9.7 | 11.3 | 0.00 | 1.07 | 1.07 | 95 | 1018.4 |
| 20260902182805 | 21 | 152 | 8.0 | 12.9 | 0.00 | 1.07 | 1.07 | 95 | 1018.3 |
| 20260902182305 | 21 | 103 | 8.0 | 12.9 | 0.00 | 1.07 | 1.07 | 95 | 1018.7 |
| 20260902181757 | 21 | 186 | 6.4 | 8.0 | 0.00 | 1.07 | 1.07 | 95 | 1018.4 |
| 20260902181252 | 21 | 114 | 4.8 | 9.7 | 0.00 | 1.07 | 1.07 | 95 | 1018.4 |
| 20260902180747 | 21 | 109 | 12.9 | 14.5 | 0.00 | 1.07 | 1.07 | 95 | 1018.7 |
| 20260902180242 | 21 | 165 | 6.4 | 8.0 | 0.00 | 1.07 | 1.07 | 95 | 1018.9 |
| 20260902175737 | 21 | 109 | 3.2 | 4.8 | 0.00 | 1.07 | 1.07 | 95 | 1018.9 |
| 20260902175233 | 21 | 114 | 8.0 | 11.3 | 0.00 | 1.07 | 1.07 | 95 | 1018.9 |
| 20260902174729 | 21 | 101 | 6.4 | 9.7 | 0.00 | 1.07 | 1.07 | 95 | 1019.0 |
| 20260902174224 | 21 | 137 | 11.3 | 16.1 | 0.00 | 1.07 | 1.07 | 95 | 1019.1 |
| 20260902173719 | 20 | 116 | 3.2 | 4.8 | 0.00 | 1.07 | 1.07 | 95 | 1019.1 |
| 20260902173214 | 20 | 91 | 4.8 | 8.0 | 0.00 | 1.07 | 1.07 | 95 | 1019.2 |
| 20260902172709 | 20 | 119 | 8.0 | 8.0 | 0.00 | 1.07 | 1.07 | 95 | 1019.3 |
| 20260902172208 | 20 | 125 | 11.3 | 16.1 | 0.00 | 1.07 | 1.07 | 95 | 1019.4 |
| 20260902171703 | 20 | 165 | 14.5 | 20.9 | 0.00 | 1.07 | 1.07 | 95 | 1019.4 |
| 20260902171159 | 20 | 73 | 6.4 | 9.7 | 0.00 | 1.07 | 1.07 | 95 | 1019.7 |
| 20260902170655 | 20 | 125 | 8.0 | 14.5 | 0.00 | 1.07 | 1.07 | 95 | 1019.4 |
| 20260902170149 | 20 | 97 | 8.0 | 12.9 | 0.00 | 1.07 | 1.07 | 95 | 1019.6 |
| 20260902165644 | 20 | 135 | 8.0 | 11.3 | 0.00 | 1.07 | 1.07 | 95 | 1019.4 |
| 20260902165138 | 20 | 139 | 4.8 | 4.8 | 0.00 | 1.07 | 1.07 | 95 | 1019.5 |
| 20260902164634 | 20 | 125 | 9.7 | 12.9 | 0.00 | 1.07 | 1.07 | 95 | 1019.3 |
| 20260902164133 | 20 | 166 | 6.4 | 8.0 | 0.00 | 1.07 | 1.07 | 95 | 1019.5 |
| 20260902163628 | 20 | 106 | 8.0 | 9.7 | 0.00 | 1.07 | 1.07 | 95 | 1019.8 |
| 20260902163127 | 20 | 121 | 6.4 | 8.0 | 0.00 | 1.07 | 1.07 | 95 | 1019.7 |
| 20260902162626 | 20 | 116 | 11.3 | 14.5 | 0.00 | 1.07 | 1.07 | 95 | 1020.1 |
| 20260902162121 | 20 | 122 | 6.4 | 8.0 | 0.00 | 1.07 | 1.07 | 95 | 1020.2 |
| 20260902161616 | 20 | 111 | 3.2 | 3.2 | 0.00 | 1.07 | 1.07 | 95 | 1020.1 |
| 20260902161112 | 20 | 129 | 1.6 | 3.2 | 0.00 | 1.07 | 1.07 | 95 | 1019.7 |
| 20260902160609 | 20 | 120 | 0.0 | 1.6 | 0.00 | 1.07 | 1.07 | 95 | 1019.7 |
| 20260902160103 | 20 | 122 | 0.0 | 0.0 | 0.00 | 1.07 | 1.07 | 95 | 1019.2 |
| 20260902155602 | 20 | 74 | 1.6 | 3.2 | 0.00 | 1.07 | 1.07 | 95 | 1019.5 |
| 20260902155100 | 21 | 119 | 8.0 | 9.7 | 0.18 | 1.07 | 1.07 | 95 | 1019.3 |
| 20260902154556 | 20 | 109 | 14.5 | 17.7 | 0.30 | 1.07 | 1.07 | 95 | 1019.1 |
| 20260902154050 | 20 | 88 | 3.2 | 8.0 | 0.61 | 1.04 | 1.04 | 95 | 1019.3 |
| 20260902153549 | 21 | 91 | 0.0 | 1.6 | 0.48 | 0.99 | 0.99 | 95 | 1019.5 |
| 20260902153045 | 21 | 44 | 1.6 | 3.2 | 0.18 | 0.94 | 0.94 | 95 | 1019.7 |
| 20260902152541 | 21 | 96 | 1.6 | 3.2 | 0.30 | 0.91 | 0.91 | 95 | 1019.8 |
| 20260902152036 | 21 | 123 | 3.2 | 3.2 | 0.48 | 0.89 | 0.89 | 95 | 1019.6 |
| 20260902151532 | 21 | 137 | 0.0 | 0.0 | 0.61 | 0.86 | 0.86 | 95 | 1019.6 |
| 20260902151031 | 21 | 146 | 0.0 | 0.0 | 0.89 | 0.81 | 0.81 | 95 | 1019.6 |
| 20260902150527 | 21 | 302 | 3.2 | 3.2 | 0.89 | 0.76 | 0.76 | 95 | 1019.4 |
| 20260902150022 | 21 | 157 | 0.0 | 0.0 | 0.30 | 0.64 | 0.64 | 95 | 1019.0 |
| 20260902145517 | 21 | 159 | 0.0 | 0.0 | 0.30 | 0.61 | 0.61 | 95 | 1019.1 |
| 20260902145017 | 21 | 107 | 1.6 | 1.6 | 0.61 | 0.58 | 0.58 | 95 | 1018.8 |
| 20260902144513 | 21 | 88 | 0.0 | 1.6 | 1.68 | 0.56 | 0.56 | 95 | 1018.4 |
| 20260902144008 | 21 | 120 | 9.7 | 12.9 | 1.68 | 0.48 | 0.48 | 95 | 1018.6 |
| 20260902143503 | 21 | 174 | 4.8 | 9.7 | 0.61 | 0.28 | 0.28 | 95 | 1019.5 |
| 20260902142958 | 21 | 155 | 4.8 | 4.8 | 0.30 | 0.20 | 0.20 | 95 | 1018.9 |
| 20260902142454 | 21 | 169 | 1.6 | 1.6 | 0.18 | 0.18 | 0.18 | 95 | 1018.8 |
| 20260902141949 | 21 | 115 | 1.6 | 3.2 | 0.30 | 0.15 | 0.15 | 95 | 1018.8 |
| 20260902141443 | 21 | 124 | 4.8 | 4.8 | 0.30 | 0.13 | 0.13 | 95 | 1018.7 |
| 20260902140938 | 22 | 151 | 0.0 | 0.0 | 0.61 | 0.10 | 0.10 | 95 | 1018.9 |
| 20260902140433 | 22 | 145 | 3.2 | 3.2 | 0.48 | 0.08 | 0.08 | 95 | 1019.2 |
| 20260902135932 | 22 | 131 | 1.6 | 3.2 | 0.00 | 0.00 | 0.00 | 95 | 1019.2 |
| 20260902135428 | 22 | 137 | 4.8 | 4.8 | 0.00 | 0.00 | 0.00 | 95 | 1019.4 |
| 20260902134927 | 22 | 149 | 0.0 | 1.6 | 0.00 | 0.00 | 0.00 | 95 | 1019.5 |
| 20260902134423 | 22 | 95 | 4.8 | 4.8 | 0.00 | 0.00 | 0.00 | 95 | 1019.6 |
| 20260902133918 | 22 | 135 | 3.2 | 3.2 | 0.00 | 0.00 | 0.00 | 95 | 1019.5 |
| 20260902133413 | 22 | 126 | 3.2 | 4.8 | 0.00 | 0.00 | 0.00 | 95 | 1019.5 |
| 20260902132908 | 22 | 182 | 1.6 | 3.2 | 0.00 | 0.00 | 0.00 | 95 | 1019.4 |
| 20260902132403 | 22 | 162 | 6.4 | 9.7 | 0.00 | 0.00 | 0.00 | 95 | 1018.8 |
| 20260902131858 | 22 | 122 | 3.2 | 3.2 | 0.00 | 0.00 | 0.00 | 95 | 1018.6 |
| 20260902131355 | 22 | 110 | 3.2 | 4.8 | 0.00 | 0.00 | 0.00 | 95 | 1018.9 |
| 20260902130854 | 21 | 102 | 4.8 | 4.8 | 0.00 | 0.00 | 0.00 | 95 | 1019.0 |
| 20260902130350 | 21 | 130 | 0.0 | 0.0 | 0.00 | 0.00 | 0.00 | 95 | 1018.9 |
| 20260902125844 | 21 | 148 | 0.0 | 0.0 | 0.00 | 0.00 | 0.00 | 95 | 1019.0 |
| 20260902125340 | 21 | 127 | 3.2 | 3.2 | 0.00 | 0.00 | 0.00 | 95 | 1018.9 |
| 20260902124836 | 21 | 133 | 4.8 | 4.8 | 0.00 | 0.00 | 0.00 | 95 | 1018.8 |
| 20260902124332 | 21 | 135 | 1.6 | 3.2 | 0.00 | 0.00 | 0.00 | 95 | 1018.8 |
| 20260902123827 | 21 | 113 | 0.0 | 0.0 | 0.00 | 0.00 | 0.00 | 95 | 1019.0 |
| 20260902123324 | 21 | 178 | 3.2 | 4.8 | 0.00 | 0.00 | 0.00 | 95 | 1018.8 |
| 20260902122822 | 21 | 171 | 1.6 | 1.6 | 0.00 | 0.00 | 0.00 | 95 | 1018.8 |
| 20260902122318 | 21 | 153 | 0.0 | 0.0 | 0.00 | 0.00 | 0.00 | 95 | 1018.8 |
| 20260902121818 | 21 | 103 | 4.8 | 4.8 | 0.00 | 0.00 | 0.00 | 95 | 1018.7 |
| 20260902121313 | 21 | 176 | 3.2 | 3.2 | 0.00 | 0.00 | 0.00 | 95 | 1018.6 |
| 20260902120809 | 21 | 152 | 1.6 | 3.2 | 0.00 | 0.00 | 0.00 | 95 | 1018.6 |
| 20260902120305 | 21 | 127 | 1.6 | 1.6 | 0.00 | 0.00 | 0.00 | 95 | 1018.7 |
| 20260902115759 | 21 | 140 | 1.6 | 3.2 | 0.00 | 0.00 | 0.00 | 95 | 1018.5 |
| 20260902115255 | 21 | 111 | 6.4 | 9.7 | 0.00 | 0.00 | 0.00 | 95 | 1018.5 |
| 20260902114751 | 21 | 118 | 4.8 | 8.0 | 0.00 | 0.00 | 0.00 | 95 | 1018.7 |
| 20260902114248 | 21 | 113 | 6.4 | 9.7 | 0.00 | 0.00 | 0.00 | 95 | 1018.4 |
| 20260902113742 | 21 | 124 | 4.8 | 4.8 | 0.00 | 0.00 | 0.00 | 95 | 1018.4 |
| 20260902113237 | 21 | 138 | 3.2 | 3.2 | 0.00 | 0.00 | 0.00 | 95 | 1018.4 |
| 20260902112736 | 21 | 141 | 1.6 | 3.2 | 0.00 | 0.00 | 0.00 | 95 | 1018.6 |
| 20260902112234 | 21 | 119 | 3.2 | 3.2 | 0.00 | 0.00 | 0.00 | 95 | 1018.2 |
| 20260902111729 | 21 | 115 | 3.2 | 3.2 | 0.00 | 0.00 | 0.00 | 95 | 1018.5 |
| 20260902111225 | 21 | 130 | 0.0 | 0.0 | 0.00 | 0.00 | 0.00 | 95 | 1018.3 |
| 20260902110721 | 21 | 118 | 4.8 | 4.8 | 0.00 | 0.00 | 0.00 | 95 | 1018.3 |
| 20260902110217 | 21 | 142 | 1.6 | 3.2 | 0.00 | 0.00 | 0.00 | 95 | 1018.3 |
| 20260902105716 | 21 | 112 | 3.2 | 3.2 | 0.00 | 0.00 | 0.00 | 95 | 1018.1 |
| 20260902105211 | 21 | 119 | 1.6 | 3.2 | 0.00 | 0.00 | 0.00 | 95 | 1018.3 |
| 20260902104707 | 21 | 146 | 0.0 | 0.0 | 0.00 | 0.00 | 0.00 | 95 | 1018.4 |
| 20260902104203 | 21 | 129 | 0.0 | 0.0 | 0.00 | 0.00 | 0.00 | 95 | 1018.3 |
| 20260902103701 | 21 | 128 | 0.0 | 0.0 | 0.00 | 0.00 | 0.00 | 95 | 1018.5 |
| 20260902103157 | 21 | 152 | 0.0 | 0.0 | 0.00 | 0.00 | 0.00 | 95 | 1018.8 |
| 20260902102653 | 21 | 142 | 0.0 | 0.0 | 0.00 | 0.00 | 0.00 | 95 | 1018.5 |
| 20260902102150 | 21 | 137 | 0.0 | 0.0 | 0.00 | 0.00 | 0.00 | 95 | 1018.7 |
| 20260902101645 | 21 | 153 | 0.0 | 0.0 | 0.00 | 0.00 | 0.00 | 95 | 1018.7 |
| 20260902101144 | 21 | 97 | 3.2 | 3.2 | 0.00 | 0.00 | 0.00 | 95 | 1018.5 |
| 20260902100639 | 21 | 149 | 0.0 | 0.0 | 0.00 | 0.00 | 0.00 | 95 | 1018.5 |
| 20260902100134 | 21 | 167 | 0.0 | 0.0 | 0.00 | 0.00 | 0.00 | 95 | 1018.7 |
| 20260902095633 | 21 | 133 | 0.0 | 0.0 | 0.00 | 0.00 | 0.00 | 95 | 1018.6 |
| 20260902095133 | 21 | 159 | 0.0 | 0.0 | 0.00 | 0.00 | 0.00 | 95 | 1018.7 |
| 20260902094627 | 21 | 146 | 0.0 | 0.0 | 0.00 | 0.00 | 0.00 | 95 | 1018.5 |
| 20260902094124 | 20 | 161 | 0.0 | 0.0 | 0.00 | 0.00 | 0.00 | 95 | 1018.5 |
| 20260902093618 | 20 | 160 | 0.0 | 0.0 | 0.00 | 0.00 | 0.00 | 95 | 1018.7 |
| 20260902093112 | 20 | 154 | 0.0 | 0.0 | 0.00 | 0.00 | 0.00 | 95 | 1018.5 |
| 20260902092606 | 20 | 160 | 0.0 | 0.0 | 0.00 | 0.00 | 0.00 | 95 | 1018.5 |
| 20260902092101 | 20 | 151 | 0.0 | 0.0 | 0.00 | 0.00 | 0.00 | 95 | 1018.6 |
| 20260902091557 | 20 | 151 | 0.0 | 0.0 | 0.00 | 0.00 | 0.00 | 95 | 1018.7 |
| 20260902091052 | 20 | 152 | 0.0 | 0.0 | 0.00 | 0.00 | 0.00 | 95 | 1018.5 |
| 20260902090548 | 20 | 152 | 0.0 | 0.0 | 0.00 | 0.00 | 0.00 | 95 | 1018.4 |
| 20260902090047 | 20 | 157 | 0.0 | 0.0 | 0.00 | 0.00 | 0.00 | 95 | 1018.5 |
| 20260902085541 | 20 | 157 | 0.0 | 0.0 | 0.00 | 0.00 | 0.00 | 95 | 1018.7 |
| 20260902085037 | 20 | 157 | 0.0 | 0.0 | 0.00 | 0.00 | 0.00 | 95 | 1018.6 |
| 20260902084534 | 20 | 160 | 0.0 | 0.0 | 0.00 | 0.00 | 0.00 | 95 | 1018.7 |
| 20260902084029 | 20 | 155 | 0.0 | 0.0 | 0.00 | 0.00 | 0.00 | 95 | 1018.7 |
| 20260902083519 | 20 | 141 | 0.0 | 0.0 | 0.00 | 0.00 | 0.00 | 95 | 1018.7 |
| 20260902083013 | 20 | 156 | 0.0 | 0.0 | 0.00 | 0.00 | 0.00 | 95 | 1018.6 |
| 20260902082509 | 20 | 140 | 0.0 | 0.0 | 0.00 | 0.00 | 0.00 | 95 | 1018.4 |
| 20260902082005 | 20 | 152 | 0.0 | 0.0 | 0.00 | 0.00 | 0.00 | 95 | 1018.5 |
| 20260902081502 | 20 | 130 | 1.6 | 1.6 | 0.00 | 0.00 | 0.00 | 95 | 1018.5 |
| 20260902081001 | 20 | 146 | 0.0 | 0.0 | 0.00 | 0.00 | 0.00 | 95 | 1018.5 |
| 20260902080457 | 20 | 152 | 0.0 | 0.0 | 0.00 | 0.00 | 0.00 | 95 | 1018.4 |
| 20260902075956 | 20 | 119 | 1.6 | 3.2 | 0.00 | 0.00 | 0.00 | 95 | 1018.4 |
| 20260902075453 | 20 | 127 | 1.6 | 1.6 | 0.00 | 0.00 | 0.00 | 95 | 1018.3 |
| 20260902074949 | 20 | 142 | 0.0 | 1.6 | 0.00 | 0.00 | 0.00 | 95 | 1018.4 |
| 20260902074444 | 20 | 138 | 0.0 | 0.0 | 0.00 | 0.00 | 0.00 | 95 | 1018.2 |
| 20260902073938 | 20 | 144 | 1.6 | 3.2 | 0.00 | 0.00 | 0.00 | 95 | 1018.4 |
| 20260902073434 | 20 | 141 | 0.0 | 0.0 | 0.00 | 0.00 | 0.00 | 95 | 1018.4 |
| 20260902072930 | 20 | 124 | 0.0 | 0.0 | 0.00 | 0.00 | 0.00 | 95 | 1018.4 |
| 20260902072426 | 20 | 137 | 0.0 | 0.0 | 0.00 | 0.00 | 0.00 | 95 | 1018.3 |
| 20260902071922 | 20 | 144 | 1.6 | 3.2 | 0.00 | 0.00 | 0.00 | 95 | 1018.3 |
| 20260902071421 | 20 | 162 | 0.0 | 0.0 | 0.00 | 0.00 | 0.00 | 95 | 1018.2 |
| 20260902070918 | 20 | 142 | 0.0 | 0.0 | 0.00 | 0.00 | 0.00 | 95 | 1018.0 |
| 20260902070414 | 20 | 131 | 1.6 | 3.2 | 0.00 | 0.00 | 0.00 | 95 | 1018.1 |
| 20260902065912 | 20 | 133 | 0.0 | 0.0 | 0.00 | 0.00 | 0.00 | 95 | 1018.1 |
| 20260902065408 | 20 | 157 | 0.0 | 0.0 | 0.00 | 0.00 | 0.00 | 95 | 1018.4 |
| 20260902064903 | 20 | 156 | 0.0 | 0.0 | 0.00 | 0.00 | 0.00 | 95 | 1018.7 |
| 20260902064358 | 20 | 150 | 0.0 | 0.0 | 0.00 | 0.00 | 0.00 | 95 | 1018.5 |
| 20260902063854 | 20 | 150 | 0.0 | 0.0 | 0.00 | 0.00 | 0.00 | 95 | 1018.7 |
| 20260902063349 | 20 | 147 | 0.0 | 0.0 | 0.00 | 0.00 | 0.00 | 95 | 1018.3 |
| 20260902062848 | 20 | 164 | 0.0 | 0.0 | 0.00 | 0.00 | 0.00 | 95 | 1018.6 |
| 20260902062343 | 20 | 166 | 0.0 | 0.0 | 0.00 | 0.00 | 0.00 | 95 | 1018.5 |
| 20260902061842 | 20 | 166 | 0.0 | 0.0 | 0.00 | 0.00 | 0.00 | 95 | 1018.7 |
| 20260902061338 | 20 | 167 | 0.0 | 0.0 | 0.00 | 0.00 | 0.00 | 95 | 1018.5 |
| 20260902060834 | 20 | 167 | 0.0 | 0.0 | 0.00 | 0.00 | 0.00 | 95 | 1018.6 |
| 20260902060329 | 20 | 167 | 0.0 | 0.0 | 0.00 | 0.00 | 0.00 | 95 | 1018.7 |
| 20260902055825 | 20 | 167 | 0.0 | 0.0 | 0.00 | 0.00 | 0.00 | 95 | 1018.7 |
| 20260902055321 | 21 | 166 | 0.0 | 0.0 | 0.00 | 0.00 | 0.00 | 95 | 1018.5 |
| 20260902054816 | 21 | 152 | 0.0 | 0.0 | 0.00 | 0.00 | 0.00 | 95 | 1018.5 |
| 20260902054312 | 21 | 151 | 0.0 | 0.0 | 0.00 | 0.00 | 0.00 | 95 | 1018.3 |
| 20260902053807 | 21 | 140 | 0.0 | 0.0 | 0.00 | 0.00 | 0.00 | 95 | 1018.5 |
| 20260902053301 | 20 | 136 | 0.0 | 0.0 | 0.00 | 0.00 | 0.00 | 95 | 1018.5 |
| 20260902052800 | 20 | 144 | 0.0 | 0.0 | 0.00 | 0.00 | 0.00 | 95 | 1018.6 |
| 20260902052255 | 20 | 158 | 0.0 | 0.0 | 0.00 | 0.00 | 0.00 | 95 | 1018.7 |
| 20260902051749 | 20 | 129 | 0.0 | 0.0 | 0.00 | 0.00 | 0.00 | 95 | 1018.3 |
| 20260902051244 | 20 | 155 | 0.0 | 0.0 | 0.00 | 0.00 | 0.00 | 95 | 1018.4 |
| 20260902050739 | 20 | 156 | 0.0 | 0.0 | 0.00 | 0.00 | 0.00 | 95 | 1018.5 |
| 20260902050228 | 20 | 155 | 0.0 | 0.0 | 0.00 | 0.00 | 0.00 | 95 | 1018.3 |
| 20260902045728 | 20 | 154 | 0.0 | 0.0 | 0.00 | 0.00 | 0.00 | 95 | 1018.3 |
| 20260902045224 | 21 | 153 | 0.0 | 0.0 | 0.00 | 0.00 | 0.00 | 95 | 1018.2 |
| 20260902044720 | 21 | 153 | 0.0 | 0.0 | 0.00 | 0.00 | 0.00 | 95 | 1018.2 |
| 20260902044215 | 21 | 153 | 0.0 | 0.0 | 0.00 | 0.00 | 0.00 | 95 | 1018.2 |
| 20260902043710 | 21 | 151 | 0.0 | 0.0 | 0.00 | 0.00 | 0.00 | 95 | 1018.1 |
| 20260902043205 | 21 | 149 | 0.0 | 0.0 | 0.00 | 0.00 | 0.00 | 95 | 1018.3 |
| 20260902042659 | 21 | 149 | 0.0 | 0.0 | 0.00 | 0.00 | 0.00 | 95 | 1018.0 |
| 20260902042154 | 21 | 156 | 0.0 | 0.0 | 0.00 | 0.00 | 0.00 | 95 | 1017.8 |
| 20260902041654 | 21 | 156 | 0.0 | 0.0 | 0.00 | 0.00 | 0.00 | 95 | 1018.0 |
| 20260902041148 | 21 | 156 | 0.0 | 0.0 | 0.00 | 0.00 | 0.00 | 95 | 1018.0 |
| 20260902040642 | 21 | 156 | 0.0 | 0.0 | 0.00 | 0.00 | 0.00 | 95 | 1017.7 |
| 20260902040138 | 21 | 156 | 0.0 | 0.0 | 0.00 | 0.00 | 0.00 | 95 | 1017.9 |
| 20260902035636 | 21 | 181 | 0.0 | 0.0 | 0.00 | 1.09 | 1.09 | 95 | 1017.9 |
| 20260902035132 | 21 | 183 | 0.0 | 0.0 | 0.00 | 1.09 | 1.09 | 95 | 1018.0 |
| 20260902034631 | 21 | 183 | 0.0 | 0.0 | 0.00 | 1.09 | 1.09 | 95 | 1017.7 |
| 20260902034130 | 21 | 183 | 0.0 | 0.0 | 0.00 | 1.09 | 1.09 | 95 | 1017.6 |
| 20260902033630 | 21 | 182 | 0.0 | 0.0 | 0.00 | 1.09 | 1.09 | 95 | 1017.8 |
| 20260902033125 | 21 | 167 | 0.0 | 0.0 | 0.00 | 1.09 | 1.09 | 95 | 1017.7 |
| 20260902032623 | 21 | 168 | 0.0 | 0.0 | 0.00 | 1.09 | 1.09 | 95 | 1017.6 |
| 20260902032118 | 21 | 162 | 0.0 | 0.0 | 0.00 | 1.09 | 1.09 | 95 | 1017.6 |
| 20260902031613 | 21 | 138 | 0.0 | 0.0 | 0.00 | 1.09 | 1.09 | 95 | 1017.8 |
| 20260902031110 | 21 | 146 | 0.0 | 0.0 | 0.00 | 1.09 | 1.09 | 95 | 1017.8 |
| 20260902030609 | 21 | 147 | 0.0 | 0.0 | 0.00 | 1.09 | 1.09 | 95 | 1017.9 |
| 20260902030103 | 21 | 147 | 0.0 | 0.0 | 0.00 | 1.09 | 1.09 | 95 | 1017.9 |
| 20260902025558 | 21 | 147 | 0.0 | 0.0 | 0.00 | 1.09 | 1.09 | 95 | 1017.8 |
| 20260902025053 | 21 | 148 | 0.0 | 0.0 | 0.00 | 1.09 | 1.09 | 95 | 1018.0 |
| 20260902024549 | 21 | 149 | 0.0 | 0.0 | 0.00 | 1.09 | 1.09 | 95 | 1017.7 |
| 20260902024048 | 21 | 120 | 0.0 | 0.0 | 0.00 | 1.09 | 1.09 | 95 | 1017.8 |
| 20260902023544 | 21 | 154 | 0.0 | 0.0 | 0.00 | 1.09 | 1.09 | 95 | 1018.0 |
| 20260902023039 | 21 | 158 | 0.0 | 0.0 | 0.00 | 1.09 | 1.09 | 95 | 1017.8 |
| 20260902022539 | 21 | 158 | 0.0 | 0.0 | 0.00 | 1.09 | 1.09 | 95 | 1017.9 |
| 20260902022035 | 21 | 158 | 0.0 | 0.0 | 0.00 | 1.09 | 1.09 | 95 | 1017.7 |
| 20260902021530 | 21 | 152 | 0.0 | 0.0 | 0.00 | 1.09 | 1.09 | 95 | 1017.8 |
| 20260902021031 | 21 | 146 | 0.0 | 0.0 | 0.00 | 1.09 | 1.09 | 95 | 1017.7 |
| 20260902020526 | 21 | 144 | 0.0 | 0.0 | 0.00 | 1.09 | 1.09 | 95 | 1017.5 |
| 20260902020022 | 21 | 135 | 0.0 | 0.0 | 0.00 | 1.09 | 1.09 | 95 | 1017.6 |
| 20260902015518 | 21 | 136 | 0.0 | 0.0 | 0.00 | 1.09 | 1.09 | 95 | 1017.5 |
| 20260902015013 | 21 | 136 | 0.0 | 0.0 | 0.00 | 1.09 | 1.09 | 95 | 1017.8 |
| 20260902014510 | 21 | 136 | 0.0 | 0.0 | 0.00 | 1.09 | 1.09 | 95 | 1017.7 |
| 20260902014004 | 21 | 137 | 0.0 | 0.0 | 0.00 | 1.09 | 1.09 | 95 | 1017.5 |
| 20260902013458 | 21 | 136 | 0.0 | 0.0 | 0.00 | 1.09 | 1.09 | 95 | 1017.3 |
| 20260902012953 | 21 | 136 | 0.0 | 0.0 | 0.00 | 1.09 | 1.09 | 95 | 1017.3 |
| 20260902012444 | 21 | 136 | 0.0 | 0.0 | 0.00 | 1.09 | 1.09 | 95 | 1017.3 |
| 20260902011939 | 21 | 137 | 0.0 | 0.0 | 0.00 | 1.09 | 1.09 | 95 | 1017.5 |
| 20260902011435 | 22 | 137 | 0.0 | 0.0 | 0.00 | 1.09 | 1.09 | 95 | 1017.2 |
| 20260902010934 | 22 | 137 | 0.0 | 0.0 | 0.00 | 1.09 | 1.09 | 95 | 1017.1 |
| 20260902010429 | 22 | 137 | 0.0 | 0.0 | 0.00 | 1.09 | 1.09 | 95 | 1017.1 |
| 20260902005928 | 22 | 137 | 0.0 | 0.0 | 0.00 | 1.09 | 1.09 | 95 | 1017.0 |
| 20260902005427 | 22 | 137 | 0.0 | 0.0 | 0.00 | 1.09 | 1.09 | 95 | 1017.1 |
| 20260902004923 | 22 | 137 | 0.0 | 0.0 | 0.00 | 1.09 | 1.09 | 95 | 1016.8 |
| 20260902004422 | 22 | 137 | 0.0 | 0.0 | 0.00 | 1.09 | 1.09 | 95 | 1016.5 |
| 20260902003918 | 22 | 137 | 0.0 | 0.0 | 0.00 | 1.09 | 1.09 | 95 | 1016.9 |
| 20260902003413 | 22 | 137 | 0.0 | 0.0 | 0.00 | 1.09 | 1.09 | 95 | 1016.8 |
| 20260902002909 | 22 | 137 | 0.0 | 0.0 | 0.00 | 1.09 | 1.09 | 95 | 1016.4 |
| 20260902002408 | 22 | 136 | 0.0 | 0.0 | 0.00 | 1.09 | 1.09 | 95 | 1016.8 |
| 20260902001903 | 22 | 136 | 0.0 | 0.0 | 0.00 | 1.09 | 1.09 | 94 | 1016.2 |